When you browse on this site, cookies collect data to enhance your experience and personalize the content and advertising you see.
Visit our Privacy Policy to learn more. By continuing to use the site, you agree to this use of cookies and data.
  • In Hungary
  • List of Countries
  • For 7 days
  • Water Temperature
  • Weather Map
  • News
  • Weather Widgets
  • user-avatar
    Login

    Hourly Weather Riyadh

    Today, 9 December, Monday

    Time Temperature Precipitation Wind Pressure Humidity
    00:00 +15°C° 0 mm 4 mps 711 mmHg 52%
    01:00 +15°C° 0 mm 4 mps 710 mmHg 55%
    02:00 +14°C° 0 mm 4 mps 710 mmHg 57%
    03:00 +14°C° 0 mm 3 mps 709 mmHg 60%
    04:00 +13°C° 0 mm 3 mps 710 mmHg 63%
    05:00 +13°C° 0 mm 3 mps 710 mmHg 66%
    06:00 +13°C° 0 mm 3 mps 710 mmHg 70%
    07:00 +14°C° 0 mm 3 mps 711 mmHg 68%
    08:00 +15°C° 0 mm 4 mps 711 mmHg 66%
    09:00 +16°C° 0 mm 5 mps 711 mmHg 64%
    10:00 +17°C° 0 mm 5 mps 711 mmHg 61%
    11:00 +20°C° 0 mm 5 mps 711 mmHg 57%
    12:00 +22°C° 0 mm 5 mps 710 mmHg 53%
    13:00 +23°C° 0 mm 5 mps 710 mmHg 52%
    14:00 +23°C° 0 mm 5 mps 709 mmHg 50%
    15:00 +25°C° 0 mm 5 mps 709 mmHg 48%
    16:00 +25°C° 0 mm 4 mps 709 mmHg 51%
    17:00 +23°C° 0 mm 4 mps 709 mmHg 53%
    18:00 +24°C° 0 mm 3 mps 709 mmHg 55%
    19:00 +22°C° 0 mm 4 mps 709 mmHg 58%
    20:00 +22°C° 0 mm 5 mps 709 mmHg 61%
    21:00 +21°C° 0 mm 6 mps 709 mmHg 64%
    22:00 +21°C° 0 mm 6 mps 709 mmHg 69%
    23:00 +20°C° 0 mm 6 mps 709 mmHg 73%

    Tomorrow, 10 December, Tuesday

    Time Temperature Precipitation Wind Pressure Humidity
    00:00 +19°C° 0 mm 6 mps 709 mmHg 77%
    01:00 +17°C° 0 mm 6 mps 709 mmHg 80%
    02:00 +17°C° 0 mm 6 mps 708 mmHg 82%
    03:00 +16°C° 0 mm 5 mps 708 mmHg 84%
    04:00 +16°C° 0.4 mm 5 mps 708 mmHg 86%
    05:00 +17°C° 0.4 mm 4 mps 709 mmHg 88%
    06:00 +17°C° 0.4 mm 4 mps 709 mmHg 90%
    07:00 +16°C° 0.4 mm 5 mps 710 mmHg 88%
    08:00 +17°C° 0.4 mm 5 mps 710 mmHg 86%
    09:00 +17°C° 0.4 mm 6 mps 710 mmHg 84%
    10:00 +19°C° 0.2 mm 6 mps 710 mmHg 80%
    11:00 +20°C° 0.2 mm 6 mps 709 mmHg 76%
    12:00 +21°C° 0.2 mm 6 mps 709 mmHg 73%
    13:00 +22°C° 0.1 mm 5 mps 708 mmHg 69%
    14:00 +23°C° 0.1 mm 5 mps 708 mmHg 65%
    15:00 +25°C° 0.1 mm 4 mps 707 mmHg 61%
    16:00 +23°C° 0.6 mm 4 mps 707 mmHg 66%
    17:00 +23°C° 0.6 mm 4 mps 708 mmHg 71%
    18:00 +22°C° 0.6 mm 4 mps 708 mmHg 77%
    19:00 +22°C° 0.3 mm 3 mps 708 mmHg 77%
    20:00 +21°C° 0.3 mm 3 mps 708 mmHg 78%
    21:00 +21°C° 0.3 mm 3 mps 708 mmHg 78%
    22:00 +21°C° 0.2 mm 3 mps 708 mmHg 81%
    23:00 +21°C° 0.2 mm 3 mps 708 mmHg 84%

    Day after tomorrow, 11 December, Wednesday

    Time Temperature Precipitation Wind Pressure Humidity
    00:00 +20°C° 0.2 mm 4 mps 709 mmHg 86%
    01:00 +20°C° 0 mm 3 mps 708 mmHg 88%
    02:00 +20°C° 0 mm 2 mps 708 mmHg 90%
    03:00 +19°C° 0 mm 2 mps 708 mmHg 91%
    04:00 +19°C° 0.1 mm 2 mps 708 mmHg 93%
    05:00 +19°C° 0.1 mm 2 mps 709 mmHg 94%
    06:00 +19°C° 0.1 mm 3 mps 709 mmHg 95%
    07:00 +19°C° 0 mm 3 mps 709 mmHg 92%
    08:00 +20°C° 0 mm 3 mps 710 mmHg 89%
    09:00 +20°C° 0 mm 4 mps 710 mmHg 86%
    10:00 +21°C° 0 mm 3 mps 710 mmHg 84%
    11:00 +21°C° 0 mm 3 mps 709 mmHg 81%
    12:00 +21°C° 0 mm 3 mps 709 mmHg 79%
    13:00 +23°C° 0 mm 2 mps 709 mmHg 76%
    14:00 +23°C° 0 mm 2 mps 708 mmHg 74%
    15:00 +23°C° 0 mm 2 mps 708 mmHg 71%
    16:00 +23°C° 0 mm 2 mps 708 mmHg 71%
    17:00 +23°C° 0 mm 2 mps 708 mmHg 72%
    18:00 +23°C° 0 mm 2 mps 709 mmHg 72%
    19:00 +22°C° 0 mm 3 mps 709 mmHg 73%
    20:00 +21°C° 0 mm 3 mps 709 mmHg 74%
    21:00 +21°C° 0 mm 3 mps 709 mmHg 75%
    22:00 +20°C° 0 mm 3 mps 709 mmHg 76%
    23:00 +20°C° 0 mm 4 mps 709 mmHg 77%

    12 December, Thursday

    Time Temperature Precipitation Wind Pressure Humidity
    00:00 +19°C° 0 mm 4 mps 709 mmHg 79%
    01:00 +19°C° 0 mm 4 mps 709 mmHg 80%
    02:00 +19°C° 0 mm 4 mps 709 mmHg 81%
    03:00 +18°C° 0 mm 4 mps 708 mmHg 82%
    04:00 +18°C° 0 mm 4 mps 709 mmHg 83%
    05:00 +18°C° 0 mm 4 mps 709 mmHg 84%
    06:00 +18°C° 0 mm 4 mps 709 mmHg 84%
    07:00 +18°C° 0 mm 4 mps 709 mmHg 81%
    08:00 +19°C° 0 mm 4 mps 709 mmHg 78%
    09:00 +19°C° 0 mm 5 mps 710 mmHg 75%
    10:00 +21°C° 0 mm 5 mps 709 mmHg 71%
    11:00 +22°C° 0 mm 5 mps 709 mmHg 67%
    12:00 +23°C° 0 mm 5 mps 708 mmHg 63%
    13:00 +23°C° 0 mm 5 mps 708 mmHg 62%
    14:00 +24°C° 0 mm 6 mps 707 mmHg 62%
    15:00 +24°C° 0 mm 6 mps 707 mmHg 61%
    16:00 +24°C° 0 mm 6 mps 707 mmHg 61%
    17:00 +23°C° 0 mm 5 mps 707 mmHg 62%
    18:00 +23°C° 0 mm 5 mps 707 mmHg 63%
    19:00 +23°C° 0 mm 5 mps 707 mmHg 63%
    20:00 +23°C° 0 mm 6 mps 707 mmHg 64%
    21:00 +22°C° 0 mm 7 mps 707 mmHg 65%
    22:00 +22°C° 0 mm 7 mps 706 mmHg 66%
    23:00 +21°C° 0 mm 7 mps 706 mmHg 67%

    13 December, Friday

    Time Temperature Precipitation Wind Pressure Humidity
    00:00 +21°C° 0 mm 8 mps 705 mmHg 68%
    01:00 +21°C° 0 mm 7 mps 705 mmHg 69%
    02:00 +21°C° 0 mm 7 mps 705 mmHg 69%
    03:00 +20°C° 0 mm 7 mps 705 mmHg 70%
    04:00 +20°C° 0 mm 6 mps 705 mmHg 70%
    05:00 +21°C° 0 mm 5 mps 705 mmHg 71%
    06:00 +21°C° 0 mm 4 mps 706 mmHg 71%
    07:00 +22°C° 0 mm 5 mps 706 mmHg 66%
    08:00 +23°C° 0 mm 6 mps 707 mmHg 61%
    09:00 +24°C° 0 mm 7 mps 707 mmHg 56%
    10:00 +26°C° 0 mm 7 mps 707 mmHg 53%
    11:00 +27°C° 0 mm 7 mps 707 mmHg 51%
    12:00 +28°C° 0 mm 6 mps 706 mmHg 48%
    13:00 +28°C° 0 mm 6 mps 706 mmHg 45%
    14:00 +28°C° 0 mm 6 mps 706 mmHg 41%
    15:00 +28°C° 0 mm 6 mps 706 mmHg 38%
    16:00 +27°C° 0 mm 5 mps 706 mmHg 36%
    17:00 +26°C° 0 mm 5 mps 707 mmHg 34%
    18:00 +23°C° 0 mm 5 mps 707 mmHg 32%
    19:00 +23°C° 0 mm 5 mps 707 mmHg 33%
    20:00 +22°C° 0 mm 4 mps 708 mmHg 34%
    21:00 +21°C° 0 mm 4 mps 708 mmHg 35%
    22:00 +20°C° 0 mm 4 mps 708 mmHg 35%
    23:00 +19°C° 0 mm 5 mps 708 mmHg 34%

    14 December, Saturday

    Time Temperature Precipitation Wind Pressure Humidity
    00:00 +17°C° 0 mm 5 mps 708 mmHg 34%
    01:00 +18°C° 0 mm 4 mps 708 mmHg 36%
    02:00 +17°C° 0 mm 4 mps 708 mmHg 37%
    03:00 +17°C° 0 mm 3 mps 708 mmHg 38%
    04:00 +16°C° 0 mm 3 mps 709 mmHg 40%
    05:00 +16°C° 0 mm 3 mps 709 mmHg 41%
    06:00 +15°C° 0 mm 2 mps 709 mmHg 43%
    07:00 +16°C° 0 mm 3 mps 710 mmHg 41%
    08:00 +17°C° 0 mm 3 mps 710 mmHg 39%
    09:00 +18°C° 0 mm 3 mps 711 mmHg 37%
    10:00 +19°C° 0 mm 3 mps 710 mmHg 35%
    11:00 +20°C° 0 mm 3 mps 710 mmHg 32%
    12:00 +21°C° 0 mm 3 mps 710 mmHg 29%
    13:00 +22°C° 0 mm 3 mps 709 mmHg 28%
    14:00 +22°C° 0 mm 3 mps 709 mmHg 28%
    15:00 +24°C° 0 mm 3 mps 709 mmHg 28%
    16:00 +22°C° 0 mm 3 mps 709 mmHg 29%
    17:00 +22°C° 0 mm 3 mps 709 mmHg 31%
    18:00 +21°C° 0 mm 3 mps 709 mmHg 32%
    19:00 +21°C° 0 mm 4 mps 709 mmHg 33%
    20:00 +20°C° 0 mm 5 mps 709 mmHg 35%
    21:00 +19°C° 0 mm 6 mps 710 mmHg 36%
    22:00 +19°C° 0 mm 5 mps 709 mmHg 37%
    23:00 +17°C° 0 mm 5 mps 709 mmHg 39%
    Show more